Location: *
(42.0175°N, 9.4056°E)
Time: 00:59:59
(UTC+00:00)

Meteor 1-5 Rocket - Pass Details

Date: 25 August 2019
Orbit: 789 x 915 km, 81.2° (Epoch: 17 October)

Event Time Altitude Azimuth Distance (km) Brightness Sun altitude
Rises 19:48:03 0° 194° (SSW) 3,469 7.2 -17.7°
Reaches altitude 10° 19:50:32 10° 197° (SSW) 2,517 6.5 -18.1°
Maximum altitude 19:56:14 70° 281° (W) 906 4.5 -19.0°
Drops below altitude 10° 20:01:46 10° 5° (N) 2,448 7.0 -19.8°
Sets 20:04:10 0° 8° (N) 3,367 7.7 -20.2°
